Simultaneous Nadir Overpasses (SNOs) Predictions

Prediction of SNOs between FY3D and AQUA Satellite Orbit:

Table of predicted SNOs for the next 14.0 days since TLE Epoch: 7/3/2021
Index Date (FY3D) Time (FY3D) Lat,Lon (FY3D) SZA (FY3D ) Date (AQUA) Time (AQUA) Lat,Lon (AQUA) SZA (AQUA ) Distance(km) Time Diff (sec)
1 07/04/2021 05:07:01 78.61, 78.06 56.99 07/04/2021 05:08:14 78.93, 79.60 57.11 49.19 73
2 07/04/2021 05:49:09 -51.49, -73.86 149.97 07/04/2021 05:49:18 -51.49, -73.86 149.97 0.15 9
3 07/04/2021 06:39:28 49.87, 94.20 28.72 07/04/2021 06:38:21 49.94, 94.44 28.77 19.35 67
4 07/06/2021 22:06:19 -54.41, 40.61 147.28 07/06/2021 22:06:38 -54.40, 40.63 147.27 1.90 19
5 07/06/2021 22:55:36 49.26,-149.59 28.46 07/06/2021 22:54:40 49.27,-149.40 28.45 13.62 56
6 07/09/2021 14:22:59 -55.62, 155.88 145.95 07/09/2021 14:23:29 -55.62, 155.88 145.93 0.10 30
7 07/09/2021 15:11:43 48.59, -33.36 28.20 07/09/2021 15:10:59 48.60, -33.26 28.18 7.53 44
8 07/12/2021 06:39:36 -56.71, -88.82 144.65 07/12/2021 06:40:17 -56.72, -88.84 144.62 1.79 41
9 07/12/2021 07:27:48 47.87, 82.89 27.94 07/12/2021 07:27:16 47.88, 82.91 27.91 1.68 32
10 07/14/2021 22:56:36 -59.04, 25.65 142.16 07/14/2021 22:57:27 -59.04, 25.65 142.14 0.48 51



Historial Predications of SNOs between FY3D and AQUA
